RH
73 60 47 45 48 56 73 68 65 58 52 51 53 54 54 50 40 26 21 21 19 20 21 25 31 29 29 26 27 25 26 23 17 19 30 42 47 64 68 68 66 67 68 67 69
73 78 54 46 43 50 63 67 64 59 55 52 56 58 56 56 48 34 22 22 20 23 24 25 30 32 31 29 29 29 29 23 21 23 28 40 47 57 65 68 69 70 66 68 70
60 69 78 49 46 44 51 67 66 53 62 54 59 60 60 59 52 38 34 23 20 22 26 28 31 33 32 31 32 30 30 30 29 28 31 40 51 55 65 69 67 67 67 70 71
59 58 76 61 48 44 40 57 74 57 57 59 60 60 63 62 53 40 37 31 22 23 28 32 33 34 34 35 33 34 36 34 35 33 38 46 51 58 70 69 70 71 70 72 70
62 58 64 80 52 45 39 50 68 68 60 65 60 63 65 64 54 44 40 36 27 24 28 34 35 35 36 36 36 37 39 38 39 40 42 48 56 58 71 71 70 69 69 68 68
58 58 61 72 73 48 39 44 59 69 71 65 62 66 67 66 55 47 42 35 30 28 30 34 37 37 39 41 40 40 42 42 42 44 48 50 58 59 67 69 68 69 68 66 64
51 53 59 64 80 55 37 40 57 69 76 69 68 68 68 66 56 48 45 37 33 30 32 37 39 37 39 43 44 45 44 46 48 48 54 56 61 68 65 68 67 66 63 63 61
48 49 51 58 65 71 39 32 50 61 71 77 73 70 67 62 57 52 49 39 35 35 36 39 44 42 43 46 49 49 49 52 53 53 55 61 69 67 65 66 65 63 62 62 61
43 43 46 47 53 61 54 44 52 70 65 83 80 69 66 59 57 53 48 44 36 37 38 42 47 47 48 50 54 53 57 58 57 55 53 59 66 66 65 65 63 63 62 61 59
36 41 31 38 47 59 66 48 56 72 70 86 81 72 64 59 56 53 49 46 43 38 43 46 49 50 49 51 54 51 49 55 56 58 55 61 62 66 68 66 63 63 62 59 57
29 32 38 30 40 58 71 60 56 74 75 77 72 69 54 59 58 55 52 49 46 45 45 50 55 49 42 46 49 49 52 56 59 59 62 63 65 69 70 68 65 63 61 59 57
27 26 36 36 31 56 68 76 55 70 69 77 73 70 58 60 61 60 57 52 48 48 48 55 57 49 50 55 56 61 63 63 62 63 64 70 67 68 65 64 62 60 57 56 54
31 27 33 40 31 46 66 78 69 58 66 69 77 71 64 58 60 59 60 54 51 51 51 50 46 55 53 59 63 64 64 68 57 62 65 65 67 65 60 58 57 55 55 54 51
34 30 40 33 39 45 60 80 79 65 65 64 73 73 65 65 65 56 56 56 55 52 50 48 47 57 65 65 61 65 63 65 64 60 63 64 64 64 61 60 56 54 53 51 48
36 37 33 37 36 44 52 74 84 75 74 66 71 74 70 70 70 67 59 54 54 53 53 48 52 58 64 62 64 67 70 73 72 72 68 70 70 58 59 56 53 53 53 51 48
34 36 26 32 34 40 51 77 80 80 79 68 69 74 78 74 75 81 73 62 59 59 57 57 58 63 62 66 69 72 75 80 80 77 82 66 67 53 55 47 51 52 53 51 49
28 32 32 31 39 43 58 73 80 87 64 74 72 76 79 80 80 84 88 77 72 71 69 65 66 67 68 75 78 76 76 93 94 91 74 66 71 46 49 48 48 51 52 55 53
22 29 32 38 36 45 60 73 82 69 73 83 87 81 81 80 82 86 92 95 83 77 76 78 80 69 65 67 70 73 68 77 81 81 69 73 70 52 52 51 50 53 55 56 58
20 23 31 33 41 45 54 66 66 70 79 87 82 84 88 84 83 87 95 97 88 84 81 81 73 68 67 67 67 75 76 65 74 75 77 69 64 61 54 56 57 55 59 62 62
15 22 26 34 34 45 62 65 61 61 73 82 92 88 86 85 92 98 97 88 92 88 88 92 91 76 72 72 73 70 66 76 78 86 85 74 68 54 57 57 58 58 62 66 64
16 20 26 29 29 41 52 62 66 63 64 72 84 89 98 90 91 96 98 85 85 89 90 95 97 90 89 83 80 78 75 73 67 71 68 69 61 55 54 56 59 61 65 66 64
16 20 27 28 34 41 43 49 51 63 62 70 73 81 88 96 98 98 95 88 85 88 94 93 98 97 89 86 85 86 78 75 78 81 80 74 66 63 60 59 62 64 66 66 65
12 16 26 31 40 39 39 40 42 47 59 67 65 63 72 88 98 98 97 88 85 86 97 97 97 97 95 95 95 97 93 89 89 88 83 85 71 70 68 68 70 72 75 75 74
11 15 20 31 38 39 38 35 38 40 48 60 68 66 72 77 84 90 97 96 96 92 95 98 98 95 79 77 80 90 93 95 96 98 88 79 85 84 81 77 77 81 81 79 77
13 19 19 17 32 33 33 34 34 35 34 38 47 64 76 76 84 91 90 90 93 96 97 97 96 93 87 83 83 84 85 95 97 97 98 88 88 88 87 86 84 84 82 80 80
16 19 19 17 17 17 19 26 28 30 31 32 35 38 44 75 73 81 87 94 97 94 97 98 96 93 91 84 84 89 88 89 96 95 96 96 94 92 87 85 88 88 88 86 83
19 21 23 20 18 17 19 21 22 23 21 24 28 31 30 33 46 61 69 66 89 97 95 97 97 97 96 95 96 97 88 91 92 93 93 95 91 93 94 93 94 95 94 94 95